Location: Evenskjer
(68.5830°N, 16.5670°E)
Time: 11:13:05
(UTC+02:00)

Envisat - Visible Passes

Search period start: 20 October 2019 00:00
Search period end: 29 October 2019 23:00
Orbit: 764 x 766 km, 98.1° (Epoch: 20 October)

Date Brightness Start Highest point End Pass type
(mag) Time Alt. Az. Time Alt. Az. Time Alt. Az.
20 Oct 5.9 06:29:11 10° NNE 06:32:58 20° E 06:36:44 10° SE visible
20 Oct 3.0 17:57:44 10° SSE 18:02:50 87° ENE 18:07:59 10° NNW visible
20 Oct 4.9 19:37:51 10° SSW 19:42:27 33° W 19:47:05 10° NNW visible
20 Oct 6.2 21:21:19 10° W 21:23:07 12° WNW 21:24:56 10° NW visible
21 Oct 6.2 05:52:55 10° NE 05:55:32 14° ENE 05:58:08 10° ESE visible
21 Oct 4.1 19:00:25 10° S 19:05:21 49° W 19:10:20 10° NNW visible
21 Oct 5.9 20:42:15 10° WSW 20:45:37 17° WNW 20:49:00 10° NW visible
22 Oct 5.5 06:54:33 10° NNE 06:58:51 27° E 07:03:09 10° SE visible
22 Oct 3.3 18:23:18 10° SSE 18:28:24 73° WSW 18:33:32 10° NNW visible
22 Oct 5.3 20:04:03 10° SW 20:08:16 25° W 20:12:31 10° NNW visible
23 Oct 6.0 06:18:01 10° NE 06:21:31 18° ENE 06:25:01 10° ESE visible
23 Oct 3.0 17:46:28 10° SSE 17:51:34 79° ENE 17:56:42 10° NNW visible
23 Oct 4.6 19:26:21 10° SSW 19:31:04 37° W 19:35:50 10° NNW visible
23 Oct 6.1 21:09:13 10° W 21:11:37 13° WNW 21:14:02 10° NW visible
24 Oct 6.3 05:41:58 10° NE 05:44:02 12° ENE 05:46:06 10° E visible
24 Oct 5.0 07:19:58 10° NNE 07:24:40 35° E 07:29:19 10° SSE visible
24 Oct 3.8 18:49:01 10° S 18:54:01 55° WSW 18:59:03 10° NNW visible
24 Oct 5.7 20:30:30 10° SW 20:34:10 20° W 20:37:51 10° NNW visible
25 Oct 5.7 06:43:19 10° NNE 06:47:26 24° E 06:51:32 10° SE visible
25 Oct 3.2 18:11:59 10° SSE 18:17:06 81° WSW 18:22:14 10° NNW visible
25 Oct 5.1 19:52:28 10° SSW 19:56:52 28° W 20:01:17 10° NNW visible
26 Oct 6.0 06:06:53 10° NE 06:10:04 16° ENE 06:13:14 10° ESE visible
26 Oct 3.0 17:35:14 10° SE 17:40:19 71° ENE 17:45:25 10° NNW visible
26 Oct 4.4 19:14:53 10° SSW 19:19:43 42° W 19:24:34 10° NNW visible
26 Oct 6.0 20:57:16 10° WSW 21:00:08 15° WNW 21:03:01 10° NW visible
27 Oct 6.4 04:31:16 10° NE 04:32:31 11° ENE 04:33:49 10° E visible
27 Oct 5.2 06:08:44 10° NNE 06:13:17 31° E 06:17:48 10° SSE visible
27 Oct 3.6 17:37:38 10° S 17:42:42 62° WSW 17:47:47 10° NNW visible
27 Oct 5.5 19:18:48 10° SW 19:22:43 22° W 19:26:40 10° NNW visible
28 Oct 5.8 05:32:07 10° NNE 05:36:00 21° E 05:39:52 10° SE visible
28 Oct 3.0 17:00:42 10° SSE 17:05:49 90° SW 17:10:58 10° NNW visible
28 Oct 4.9 18:40:55 10° SSW 18:45:28 32° W 18:50:03 10° NNW visible
28 Oct 6.2 20:24:42 10° W 20:26:11 11° WNW 20:27:41 10° NW visible
29 Oct 6.1 04:55:48 10° NE 04:58:35 15° ENE 05:01:22 10° ESE visible
29 Oct 4.6 06:34:13 10° NNE 06:39:02 41° E 06:43:51 10° SSE visible
29 Oct 3.0 16:24:01 10° SE 16:29:04 64° ENE 16:34:07 10° NNW visible
29 Oct 4.1 18:03:26 10° S 18:08:22 47° W 18:13:18 10° NNW visible
29 Oct 5.9 19:45:25 10° WSW 19:48:40 17° WNW 19:51:55 10° NW visible
